Location: Bogis-Bossey
(46.3500°N, 6.1667°E)
Time: 17:10:56
(UTC+00:00)

Cosmos 1666 Rocket - Pass Details

Date: 17 August 2022
Orbit: 603 x 632 km, 82.5° (Epoch: 30 September)

Event Time Altitude Azimuth Distance (km) Brightness Sun altitude
Exits shadow 21:31:47 41° 57° (ENE) 902 4.3 -23.9°
Drops below altitude 10° 21:35:05 10° 20° (NNE) 1,976 6.6 -24.2°
Sets 21:37:22 0° 15° (NNE) 2,882 7.6 -24.4°
